Weather Roundup
Issued by NWS

Home | Current Version | Previous Version | Text Only | Print | Product List | Glossary On
Versions: 1 2 3 4 5 6 7 8 9 10 11 12 13 14 15 16 17 18 19 20 21 22 23 24 25 26 27 28 29 30 31 32 33 34 35 36 37 38 39 40 41 42 43 44 45 46 47 48 49 50
000
NZUS93 KARX 281710
HRRWXR

CURRENT HOURLY OBSERVATIONS ACROSS
MUCH OF THE UPPER MISSISSIPPI VALLEY
NATIONAL WEATHER SERVICE LA CROSSE WI
1200 PM CDT THU MAY 28 2015


...SOUTHEAST MINNESOTA...


CITY           SKY/WX    TMP DP  RH WIND       PRES   REMARKS
ROCHESTER      MOSUNNY   78  60  53 S18       30.11F
ROCHESTER/MAYO FAIR      77  56  48 SE10G17   30.10F
WINONA         MOSUNNY   79  59  50 S5        30.10F
AUSTIN         MOSUNNY   75  61  60 S12       30.10S
ALBERT LEA     MOSUNNY   79  57  47 S13G20    30.08F
DODGE CENTER   MOSUNNY   79  57  47 S18G25    30.10S
PRESTON        MOSUNNY   77  58  51 S13       30.12F
OWATONNA       MOSUNNY   81  54  39 S14G22    30.08S
FARIBAULT      MOSUNNY   81  57  44 S10G17    30.07S
$$

...ELSEWHERE IN MINNESOTA...


CITY           SKY/WX    TMP DP  RH WIND       PRES   REMARKS
MINNEAPOLIS    MOSUNNY   81  52  36 SW13G22   30.05S
INTNL FALLS    LGT RAIN  56  53  90 SE8       29.99F
DULUTH         PTSUNNY   50  44  80 SE14      30.08S
RED WING       MOSUNNY   82  52  34 S10G16    30.06S
REDWOOD FALLS  MOSUNNY   82  51  34 SW23G29   30.01F
MANKATO        MOSUNNY   81  54  39 SW17      30.05F
WORTHINGTON    MOSUNNY   79  50  36 S18G26    30.03F
FAIRMONT       MOSUNNY   79  52  38 S22       30.05F
$$

...SOUTHWEST WISCONSIN...


CITY           SKY/WX    TMP DP  RH WIND       PRES   REMARKS
LA CROSSE      MOSUNNY   81  61  50 S7        30.10F
PRAIRIE DU CHI PTSUNNY   79  55  44 SE8       30.13S
BOSCOBEL       MOSUNNY   81  59  47 VRB6      30.14S
LONE ROCK      MOSUNNY   79  59  50 S9        30.14F
PLATTEVILLE    MOSUNNY   78  58  50 S9        30.16S
FORT MC COY    MOSUNNY   81  54  39 SW8       30.12F
CAMP DOUGLAS   MOSUNNY   81  63  54 VRB6      30.12F
VIROQUA        FAIR      78  59  51 SW12      30.15F
WIS DELLS      MOSUNNY   77  58  51 S8        30.15S
$$

...ELSEWHERE IN WISCONSIN...


CITY           SKY/WX    TMP DP  RH WIND       PRES   REMARKS
MILWAUKEE      PTSUNNY   80  60  50 SE10      30.18F
MADISON        PTSUNNY   79  56  45 S12G17    30.16F
GREEN BAY      SUNNY     79  65  62 S7        30.14F
EAU CLAIRE     SUNNY     81  56  42 S15       30.08S
BLACK RVR FLS  FAIR      82  53  35 SW9       30.11F
MEDFORD        SUNNY     75  61  60 S8        30.13F
WAUSAU         SUNNY     78  59  51 SW8       30.12S
WIS RAPIDS     SUNNY     82  57  42 S13       30.14F
MARSHFIELD     SUNNY     81  57  43 SW7       30.13S
RICE LAKE      SUNNY     81  53  37 SW7       30.08F
$$

...NORTHEAST IOWA...


CITY           SKY/WX    TMP DP  RH WIND       PRES   REMARKS
DECORAH        MOSUNNY   77  59  53 S10       30.12F
MASON CITY     MOSUNNY   77  56  48 S18       30.10F
CHARLES CITY   PTSUNNY   77  57  50 S14G20    30.12S
OELWEIN        MOSUNNY   79  55  44 S16       30.13F
$$

...ELSEWHERE IN IOWA...


CITY           SKY/WX    TMP DP  RH WIND       PRES   REMARKS
DES MOINES     CLOUDY    78  59  51 S17       30.09S
IOWA CITY      MOSUNNY   77  58  51 S15       30.14F
FORT DODGE     PTSUNNY   75  59  57 S14G23    30.08F
$$

...NORTHERN ILLINOIS...


CITY           SKY/WX    TMP DP  RH WIND       PRES   REMARKS
CHICAGO-OHARE  PTSUNNY   79  54  41 SE9       30.19F
CHICAGO-MIDWAY PTSUNNY   81  56  42 SE12      30.19F
MOLINE         SUNNY     80  55  42 SE15G22   30.14F
ROCKFORD       PTSUNNY   79  59  50 S10       30.19F
PEORIA         SUNNY     80  53  39 SE13G20   30.16F
$$

NOTE: "FAIR" INDICATES FEW OR NO CLOUDS BELOW 12,000 FEET WITH NO
SIGNIFICANT WEATHER AND/OR OBSTRUCTIONS TO VISIBILITY. WIND
SPEEDS ARE IN MILES-PER-HOUR.



USA.gov is the U.S. government's official web portal to all federal, state and local government web resources and services.